EGSS

London Stansted Airport

Airport
ICAO code
EGSS
IATA Code
STN
Summary
ICAO Region
EUR
ICAO Territory
Location

Stansted, England, United Kingdom, Essex

Serving
London
Elevation
348 ft
Coordinates
51° 53' 22" N , 0° 15' 41" E
KCC
Metar
Observation
EGSS 271420Z AUTO 18007KT 9999 BKN004/// //////TCU 12/12 Q1011
Station
Stansted Airport
Date/Time
2022-11-27 14:20:00
Wind direction
180°
Wind speed
07 kts
Lowest cloud amount
broken clouds
Temperature
12°C
Dew point
12°C
Humidity
100%
QNH
1011 hPa
Weather condition
n/a

London Stansted Airport is an international airport located at Stansted Mountfitchet in the district of Uttlesford in Essex, 42nm northeast of Central London.

Climatology

Temperate Marine climate/Oceanic climate (Köppen climate classification Cfb).

Runways

Designator Length Width Surface Rops
5/23 3048 46 ASP Yes/Yes

SKYbrary Partners:

Safety knowledge contributed by: